| time (UTC) | temp F | wind direction | speed MPH | gust MPH | rain 1hr in | rain 24hr in | rain mn in | humidity % | barometer mb |
| 20260510081030 | 49 | 0 | 0.0 | 0.0 | 0.00 | 0.30 | 0.00 | 94 | 1008.0 |
| 20260510080530 | 49 | 0 | 0.0 | 0.0 | 0.00 | 0.30 | 0.00 | 94 | 1007.9 |
| 20260510080045 | 49 | 0 | 0.0 | 0.0 | 0.00 | 0.30 | 0.00 | 94 | 1007.8 |
| 20260510075531 | 49 | 0 | 0.0 | 0.0 | 0.00 | 0.30 | 0.00 | 94 | 1007.7 |
| 20260510075029 | 49 | 0 | 0.0 | 0.0 | 0.00 | 0.30 | 0.00 | 94 | 1007.8 |
| 20260510074540 | 49 | 0 | 0.0 | 0.0 | 0.00 | 0.30 | 0.00 | 94 | 1008.3 |
| 20260510074029 | 49 | 0 | 0.0 | 0.0 | 0.00 | 0.30 | 0.00 | 94 | 1008.2 |
| 20260510073530 | 49 | 0 | 0.0 | 0.0 | 0.00 | 0.30 | 0.00 | 94 | 1008.5 |
| 20260510073042 | 49 | 0 | 0.0 | 0.0 | 0.00 | 0.30 | 0.00 | 94 | 1008.2 |
| 20260510072530 | 49 | 0 | 0.0 | 0.0 | 0.00 | 0.30 | 0.00 | 94 | 1008.0 |
| 20260510072030 | 49 | 0 | 0.0 | 0.0 | 0.00 | 0.30 | 0.00 | 94 | 1008.4 |
| 20260510071541 | 48 | 0 | 0.0 | 0.0 | 0.00 | 0.30 | 0.00 | 94 | 1008.1 |
| 20260510071030 | 48 | 0 | 0.0 | 0.0 | 0.00 | 0.30 | 0.00 | 94 | 1007.8 |
| 20260510070530 | 48 | 0 | 0.0 | 0.0 | 0.00 | 0.30 | 0.00 | 94 | 1008.0 |
| 20260510070042 | 48 | 0 | 0.0 | 0.0 | 0.00 | 0.30 | 0.00 | 94 | 1008.3 |
| 20260510065533 | 48 | 0 | 0.0 | 0.0 | 0.00 | 0.30 | 0.00 | 94 | 1008.7 |
| 20260510065030 | 48 | 0 | 0.0 | 0.0 | 0.00 | 0.30 | 0.00 | 94 | 1008.6 |
| 20260510064543 | 48 | 0 | 0.0 | 0.0 | 0.00 | 0.30 | 0.00 | 94 | 1008.9 |
| 20260510064029 | 48 | 0 | 0.0 | 0.0 | 0.00 | 0.30 | 0.00 | 94 | 1009.1 |
| 20260510063529 | 48 | 0 | 0.0 | 0.0 | 0.00 | 0.30 | 0.00 | 94 | 1009.0 |
| 20260510063045 | 48 | 0 | 0.0 | 1.0 | 0.00 | 0.30 | 0.00 | 94 | 1009.2 |
| 20260510062531 | 48 | 0 | 0.0 | 3.0 | 0.00 | 0.30 | 0.00 | 94 | 1009.3 |
| 20260510062030 | 49 | 0 | 0.0 | 3.0 | 0.00 | 0.30 | 0.00 | 94 | 1009.3 |
| 20260510061543 | 49 | 0 | 0.0 | 2.0 | 0.00 | 0.30 | 0.00 | 94 | 1009.2 |
| 20260510061030 | 49 | 0 | 0.0 | 1.0 | 0.00 | 0.30 | 0.00 | 94 | 1009.2 |
| 20260510060530 | 48 | 0 | 0.0 | 2.0 | 0.00 | 0.30 | 0.00 | 94 | 1009.2 |
| 20260510060041 | 48 | 0 | 0.0 | 3.0 | 0.00 | 0.30 | 0.00 | 94 | 1009.2 |
| 20260510055529 | 48 | 0 | 0.0 | 3.0 | 0.00 | 0.30 | 0.00 | 94 | 1009.2 |
| 20260510055030 | 48 | 0 | 0.0 | 2.0 | 0.00 | 0.30 | 0.00 | 94 | 1009.2 |
| 20260510054539 | 48 | 0 | 0.0 | 3.0 | 0.00 | 0.30 | 0.00 | 94 | 1009.2 |
| 20260510054030 | 48 | 151 | 0.0 | 3.0 | 0.00 | 0.30 | 0.00 | 94 | 1009.1 |
| 20260510053529 | 47 | 0 | 0.0 | 2.0 | 0.00 | 0.30 | 0.00 | 94 | 1009.0 |
| 20260510053036 | 47 | 0 | 0.0 | 0.0 | 0.00 | 0.30 | 0.00 | 94 | 1008.9 |
| 20260510052530 | 47 | 0 | 0.0 | 2.0 | 0.00 | 0.30 | 0.00 | 93 | 1008.7 |
| 20260510052030 | 47 | 0 | 0.0 | 2.0 | 0.00 | 0.30 | 0.00 | 93 | 1008.5 |
| 20260510051544 | 47 | 169 | 0.0 | 3.0 | 0.00 | 0.30 | 0.00 | 93 | 1008.5 |
| 20260510051032 | 47 | 0 | 0.0 | 3.0 | 0.00 | 0.30 | 0.00 | 93 | 1008.4 |
| 20260510050530 | 47 | 138 | 0.0 | 3.0 | 0.00 | 0.30 | 0.00 | 93 | 1008.4 |
| 20260510050040 | 48 | 0 | 0.0 | 2.0 | 0.00 | 0.30 | 0.00 | 93 | 1008.3 |
| 20260510045532 | 48 | 0 | 0.0 | 2.0 | 0.00 | 0.30 | 0.00 | 93 | 1008.2 |
| 20260510045030 | 48 | 0 | 0.0 | 2.0 | 0.00 | 0.30 | 0.00 | 92 | 1008.2 |
| 20260510044552 | 48 | 0 | 0.0 | 2.0 | 0.00 | 0.30 | 0.00 | 92 | 1008.1 |
| 20260510044030 | 48 | 207 | 0.0 | 1.0 | 0.00 | 0.30 | 0.00 | 92 | 1008.1 |
| 20260510043530 | 49 | 0 | 0.0 | 5.0 | 0.00 | 0.30 | 0.00 | 92 | 1008.1 |
| 20260510043039 | 49 | 0 | 0.0 | 5.0 | 0.00 | 0.30 | 0.00 | 91 | 1008.2 |
| 20260510042529 | 49 | 210 | 1.0 | 5.0 | 0.00 | 0.30 | 0.00 | 91 | 1008.2 |
| 20260510042029 | 49 | 0 | 0.0 | 2.0 | 0.00 | 0.30 | 0.00 | 91 | 1008.3 |
| 20260510041535 | 50 | 0 | 0.0 | 4.0 | 0.00 | 0.30 | 0.00 | 91 | 1008.5 |
| 20260510041032 | 50 | 0 | 0.0 | 4.0 | 0.00 | 0.30 | 0.00 | 90 | 1008.5 |
| 20260510040530 | 50 | 192 | 0.0 | 4.0 | 0.00 | 0.30 | 0.00 | 90 | 1008.4 |
| 20260510040043 | 50 | 230 | 0.0 | 4.0 | 0.00 | 0.30 | 0.00 | 90 | 1008.4 |
| 20260510035530 | 50 | 0 | 0.0 | 4.0 | 0.00 | 0.30 | 0.30 | 90 | 1008.5 |
| 20260510035030 | 50 | 231 | 0.0 | 3.0 | 0.00 | 0.30 | 0.30 | 90 | 1008.3 |
| 20260510034541 | 51 | 150 | 1.0 | 3.0 | 0.00 | 0.30 | 0.30 | 90 | 1008.1 |
| 20260510034030 | 51 | 220 | 0.0 | 3.0 | 0.00 | 0.30 | 0.30 | 90 | 1008.0 |
| 20260510033529 | 51 | 152 | 1.0 | 4.0 | 0.00 | 0.30 | 0.30 | 90 | 1008.0 |
| 20260510033038 | 51 | 0 | 0.0 | 4.0 | 0.00 | 0.30 | 0.30 | 90 | 1007.9 |
| 20260510032529 | 51 | 157 | 0.0 | 4.0 | 0.00 | 0.30 | 0.30 | 90 | 1008.0 |
| 20260510032030 | 51 | 227 | 0.0 | 3.0 | 0.00 | 0.30 | 0.30 | 90 | 1008.1 |
| 20260510031540 | 50 | 132 | 0.0 | 2.0 | 0.00 | 0.30 | 0.30 | 90 | 1008.2 |
| 20260510031029 | 51 | 352 | 0.0 | 3.0 | 0.00 | 0.30 | 0.30 | 90 | 1008.3 |
| 20260510030529 | 51 | 0 | 0.0 | 3.0 | 0.00 | 0.30 | 0.30 | 90 | 1008.3 |
| 20260510030045 | 51 | 0 | 0.0 | 2.0 | 0.00 | 0.30 | 0.30 | 90 | 1008.2 |
| 20260510025530 | 51 | 153 | 0.0 | 2.0 | 0.00 | 0.30 | 0.30 | 89 | 1008.1 |
| 20260510025030 | 51 | 0 | 0.0 | 3.0 | 0.00 | 0.30 | 0.30 | 89 | 1007.9 |
| 20260510024542 | 52 | 126 | 0.0 | 3.0 | 0.00 | 0.30 | 0.30 | 89 | 1007.9 |
| 20260510024030 | 52 | 150 | 0.0 | 4.0 | 0.00 | 0.30 | 0.30 | 89 | 1008.0 |
| 20260510023531 | 52 | 98 | 0.0 | 6.0 | 0.00 | 0.30 | 0.30 | 89 | 1008.1 |
| 20260510023037 | 52 | 144 | 1.0 | 6.0 | 0.00 | 0.30 | 0.30 | 89 | 1008.2 |
| 20260510022530 | 52 | 0 | 0.0 | 0.0 | 0.00 | 0.30 | 0.30 | 89 | 1008.4 |
| 20260510022030 | 52 | 0 | 0.0 | 1.0 | 0.00 | 0.30 | 0.30 | 88 | 1008.1 |
| 20260510021544 | 52 | 0 | 0.0 | 1.0 | 0.00 | 0.30 | 0.30 | 88 | 1008.1 |
| 20260510021029 | 53 | 0 | 0.0 | 1.0 | 0.00 | 0.30 | 0.30 | 87 | 1008.0 |
| 20260510020530 | 53 | 0 | 0.0 | 1.0 | 0.00 | 0.30 | 0.30 | 87 | 1008.1 |
| 20260510020035 | 53 | 0 | 0.0 | 1.0 | 0.00 | 0.30 | 0.30 | 87 | 1008.1 |
| 20260510015531 | 53 | 0 | 0.0 | 1.0 | 0.00 | 0.30 | 0.30 | 87 | 1008.1 |
| 20260510015030 | 53 | 0 | 0.0 | 1.0 | 0.00 | 0.30 | 0.30 | 87 | 1008.1 |
| 20260510014545 | 53 | 0 | 0.0 | 1.0 | 0.00 | 0.30 | 0.30 | 87 | 1008.1 |
| 20260510014030 | 53 | 0 | 0.0 | 1.0 | 0.00 | 0.30 | 0.30 | 87 | 1008.2 |
| 20260510013529 | 53 | 0 | 0.0 | 2.0 | 0.00 | 0.30 | 0.30 | 87 | 1008.0 |
| 20260510013038 | 53 | 0 | 0.0 | 2.0 | 0.00 | 0.30 | 0.30 | 87 | 1008.0 |
| 20260510012534 | 53 | 0 | 0.0 | 2.0 | 0.00 | 0.30 | 0.30 | 86 | 1008.2 |
| 20260510012030 | 53 | 0 | 0.0 | 4.0 | 0.00 | 0.30 | 0.30 | 86 | 1008.1 |
| 20260510011536 | 53 | 0 | 0.0 | 4.0 | 0.00 | 0.30 | 0.30 | 86 | 1008.1 |
| 20260510011030 | 53 | 0 | 0.0 | 1.0 | 0.00 | 0.30 | 0.30 | 87 | 1007.9 |
| 20260510010529 | 53 | 0 | 0.0 | 3.0 | 0.00 | 0.30 | 0.30 | 87 | 1007.9 |
| 20260510010035 | 53 | 0 | 0.0 | 3.0 | 0.00 | 0.30 | 0.30 | 87 | 1007.9 |
| 20260510005530 | 53 | 0 | 0.0 | 3.0 | 0.00 | 0.30 | 0.30 | 87 | 1008.0 |
| 20260510005032 | 53 | 0 | 0.0 | 5.0 | 0.00 | 0.30 | 0.30 | 87 | 1008.0 |
| 20260510004543 | 53 | 0 | 0.0 | 5.0 | 0.00 | 0.30 | 0.30 | 87 | 1008.0 |
| 20260510004030 | 53 | 203 | 0.0 | 3.0 | 0.00 | 0.30 | 0.30 | 87 | 1007.8 |
| 20260510003530 | 53 | 0 | 0.0 | 1.0 | 0.00 | 0.30 | 0.30 | 87 | 1007.6 |
| 20260510003037 | 54 | 0 | 0.0 | 1.0 | 0.00 | 0.30 | 0.30 | 87 | 1007.6 |
| 20260510002530 | 53 | 0 | 0.0 | 0.0 | 0.00 | 0.30 | 0.30 | 88 | 1007.5 |
| 20260510002029 | 54 | 0 | 0.0 | 0.0 | 0.00 | 0.30 | 0.30 | 88 | 1007.5 |
| 20260510001540 | 54 | 0 | 0.0 | 1.0 | 0.00 | 0.30 | 0.30 | 88 | 1007.6 |
| 20260510001030 | 54 | 0 | 0.0 | 1.0 | 0.00 | 0.30 | 0.30 | 88 | 1007.6 |
| 20260510000529 | 54 | 0 | 0.0 | 0.0 | 0.00 | 0.30 | 0.30 | 88 | 1007.7 |
| 20260510000039 | 54 | 0 | 0.0 | 0.0 | 0.00 | 0.30 | 0.30 | 88 | 1007.7 |
| 20260509235529 | 54 | 0 | 0.0 | 0.0 | 0.00 | 0.30 | 0.30 | 87 | 1007.5 |
| 20260509235030 | 55 | 0 | 0.0 | 1.0 | 0.00 | 0.30 | 0.30 | 87 | 1007.3 |
| 20260509234545 | 55 | 0 | 0.0 | 1.0 | 0.00 | 0.30 | 0.30 | 87 | 1007.1 |
| 20260509234030 | 55 | 0 | 0.0 | 1.0 | 0.00 | 0.30 | 0.30 | 86 | 1007.0 |
| 20260509233530 | 55 | 0 | 0.0 | 1.0 | 0.00 | 0.30 | 0.30 | 85 | 1006.9 |
| 20260509233040 | 55 | 0 | 0.0 | 1.0 | 0.00 | 0.30 | 0.30 | 85 | 1006.9 |
| 20260509232530 | 55 | 0 | 0.0 | 1.0 | 0.00 | 0.30 | 0.30 | 84 | 1006.9 |
| 20260509232030 | 56 | 0 | 0.0 | 1.0 | 0.00 | 0.30 | 0.30 | 83 | 1006.9 |
| 20260509231539 | 56 | 0 | 0.0 | 0.0 | 0.00 | 0.30 | 0.30 | 82 | 1006.8 |
| 20260509231031 | 56 | 0 | 0.0 | 2.0 | 0.00 | 0.30 | 0.30 | 81 | 1006.7 |
| 20260509230529 | 57 | 0 | 0.0 | 2.0 | 0.00 | 0.30 | 0.30 | 82 | 1006.8 |
| 20260509230037 | 57 | 187 | 0.0 | 2.0 | 0.00 | 0.30 | 0.30 | 80 | 1006.7 |
| 20260509225604 | 57 | 0 | 0.0 | 1.0 | 0.00 | 0.30 | 0.30 | 80 | 1006.7 |
| 20260509225032 | 57 | 0 | 0.0 | 4.0 | 0.00 | 0.30 | 0.30 | 80 | 1006.7 |
| 20260509224543 | 57 | 0 | 0.0 | 4.0 | 0.00 | 0.30 | 0.30 | 79 | 1006.7 |
| 20260509224030 | 57 | 0 | 0.0 | 3.0 | 0.00 | 0.30 | 0.30 | 80 | 1006.7 |
| 20260509223530 | 57 | 142 | 0.0 | 3.0 | 0.00 | 0.30 | 0.30 | 79 | 1006.6 |
| 20260509223037 | 57 | 240 | 1.0 | 3.0 | 0.00 | 0.30 | 0.30 | 79 | 1006.8 |
| 20260509222530 | 57 | 0 | 0.0 | 2.0 | 0.00 | 0.30 | 0.30 | 80 | 1006.8 |
| 20260509222035 | 57 | 0 | 0.0 | 1.0 | 0.00 | 0.30 | 0.30 | 81 | 1006.8 |
| 20260509221543 | 57 | 146 | 0.0 | 1.0 | 0.00 | 0.30 | 0.30 | 83 | 1006.8 |
| 20260509221030 | 57 | 0 | 0.0 | 1.0 | 0.00 | 0.30 | 0.30 | 82 | 1006.9 |
| 20260509220531 | 57 | 0 | 0.0 | 1.0 | 0.00 | 0.30 | 0.30 | 82 | 1006.9 |
| 20260509220044 | 57 | 0 | 0.0 | 1.0 | 0.00 | 0.30 | 0.30 | 81 | 1007.0 |
| 20260509215531 | 57 | 200 | 0.0 | 2.0 | 0.00 | 0.30 | 0.30 | 80 | 1007.1 |
| 20260509215031 | 57 | 0 | 0.0 | 2.0 | 0.00 | 0.30 | 0.30 | 80 | 1007.1 |
| 20260509214543 | 57 | 0 | 0.0 | 2.0 | 0.00 | 0.30 | 0.30 | 79 | 1007.1 |
| 20260509214033 | 57 | 0 | 0.0 | 3.0 | 0.00 | 0.30 | 0.30 | 81 | 1007.1 |
| 20260509213530 | 57 | 0 | 0.0 | 3.0 | 0.00 | 0.30 | 0.30 | 82 | 1007.2 |
| 20260509213042 | 56 | 88 | 0.0 | 2.0 | 0.00 | 0.30 | 0.30 | 81 | 1007.2 |
| 20260509212529 | 57 | 39 | 0.0 | 2.0 | 0.00 | 0.30 | 0.30 | 82 | 1007.2 |
| 20260509212027 | 56 | 149 | 0.0 | 0.0 | 0.00 | 0.30 | 0.30 | 84 | 1007.3 |
| 20260509211543 | 56 | 0 | 0.0 | 1.0 | 0.00 | 0.30 | 0.30 | 83 | 1007.3 |
| 20260509211030 | 56 | 0 | 0.0 | 1.0 | 0.00 | 0.30 | 0.30 | 84 | 1007.3 |
| 20260509210531 | 55 | 0 | 0.0 | 1.0 | 0.00 | 0.30 | 0.30 | 86 | 1007.4 |
| 20260509210047 | 55 | 0 | 0.0 | 3.0 | 0.00 | 0.30 | 0.30 | 87 | 1007.4 |
| 20260509205530 | 55 | 0 | 0.0 | 3.0 | 0.00 | 0.30 | 0.30 | 87 | 1007.3 |
| 20260509205030 | 54 | 0 | 0.0 | 3.0 | 0.00 | 0.30 | 0.30 | 87 | 1007.3 |
| 20260509204543 | 54 | 0 | 0.0 | 2.0 | 0.00 | 0.30 | 0.30 | 88 | 1007.4 |
| 20260509204031 | 54 | 0 | 0.0 | 2.0 | 0.00 | 0.30 | 0.30 | 89 | 1007.4 |
| 20260509203533 | 54 | 186 | 0.0 | 4.0 | 0.00 | 0.30 | 0.30 | 88 | 1007.6 |
| 20260509203102 | 53 | 0 | 0.0 | 4.0 | 0.00 | 0.30 | 0.30 | 88 | 1007.7 |
| 20260509202531 | 53 | 0 | 0.0 | 3.0 | 0.00 | 0.30 | 0.30 | 88 | 1007.7 |
| 20260509202034 | 53 | 0 | 0.0 | 3.0 | 0.00 | 0.30 | 0.30 | 88 | 1007.8 |
| 20260509201541 | 54 | 0 | 0.0 | 3.0 | 0.00 | 0.30 | 0.30 | 89 | 1007.8 |
| 20260509201031 | 54 | 0 | 0.0 | 2.0 | 0.00 | 0.30 | 0.30 | 89 | 1007.8 |
| 20260509200530 | 54 | 0 | 0.0 | 2.0 | 0.00 | 0.30 | 0.30 | 90 | 1007.8 |
| 20260509200036 | 53 | 0 | 0.0 | 4.0 | 0.00 | 0.30 | 0.30 | 90 | 1007.9 |
| 20260509195532 | 53 | 0 | 0.0 | 4.0 | 0.01 | 0.30 | 0.30 | 90 | 1008.0 |
| 20260509195030 | 53 | 0 | 0.0 | 4.0 | 0.01 | 0.30 | 0.30 | 90 | 1008.0 |
| 20260509194540 | 53 | 227 | 1.0 | 5.0 | 0.01 | 0.30 | 0.30 | 90 | 1008.0 |
| 20260509194030 | 53 | 0 | 0.0 | 5.0 | 0.01 | 0.30 | 0.30 | 90 | 1008.1 |
| 20260509193531 | 53 | 0 | 0.0 | 3.0 | 0.01 | 0.30 | 0.30 | 90 | 1008.2 |
| 20260509193047 | 53 | 0 | 0.0 | 3.0 | 0.01 | 0.30 | 0.30 | 91 | 1008.2 |
| 20260509192530 | 52 | 236 | 0.0 | 4.0 | 0.01 | 0.30 | 0.30 | 91 | 1008.2 |
| 20260509192029 | 52 | 0 | 0.0 | 4.0 | 0.01 | 0.30 | 0.30 | 90 | 1008.4 |
| 20260509191554 | 52 | 244 | 0.0 | 4.0 | 0.01 | 0.30 | 0.30 | 91 | 1008.5 |
| 20260509191030 | 52 | 134 | 0.0 | 2.0 | 0.01 | 0.30 | 0.30 | 91 | 1008.5 |
| 20260509190530 | 52 | 188 | 0.0 | 3.0 | 0.01 | 0.30 | 0.30 | 90 | 1008.6 |
| 20260509190041 | 52 | 0 | 0.0 | 4.0 | 0.01 | 0.30 | 0.30 | 91 | 1008.7 |
| 20260509185530 | 52 | 119 | 0.0 | 4.0 | 0.00 | 0.29 | 0.29 | 90 | 1008.7 |
| 20260509185033 | 52 | 0 | 0.0 | 2.0 | 0.00 | 0.29 | 0.29 | 90 | 1008.8 |
| 20260509184537 | 52 | 0 | 0.0 | 3.0 | 0.00 | 0.29 | 0.29 | 90 | 1008.9 |
| 20260509184030 | 52 | 0 | 0.0 | 3.0 | 0.00 | 0.29 | 0.29 | 90 | 1008.8 |
| 20260509183530 | 52 | 0 | 0.0 | 5.0 | 0.00 | 0.29 | 0.29 | 90 | 1008.8 |
| 20260509183039 | 52 | 0 | 0.0 | 5.0 | 0.00 | 0.29 | 0.29 | 90 | 1008.7 |
| 20260509182530 | 52 | 0 | 0.0 | 3.0 | 0.01 | 0.29 | 0.29 | 89 | 1008.8 |
| 20260509182029 | 52 | 152 | 0.0 | 3.0 | 0.01 | 0.29 | 0.29 | 90 | 1008.8 |
| 20260509181540 | 52 | 0 | 0.0 | 5.0 | 0.01 | 0.29 | 0.29 | 90 | 1008.8 |
| 20260509181031 | 52 | 0 | 0.0 | 5.0 | 0.01 | 0.29 | 0.29 | 90 | 1008.7 |
| 20260509180532 | 52 | 231 | 0.0 | 5.0 | 0.01 | 0.29 | 0.29 | 91 | 1008.7 |
| 20260509180043 | 52 | 0 | 0.0 | 3.0 | 0.02 | 0.29 | 0.29 | 91 | 1008.7 |
| 20260509175530 | 52 | 0 | 0.0 | 3.0 | 0.02 | 0.29 | 0.29 | 91 | 1008.7 |
| 20260509175030 | 52 | 0 | 0.0 | 3.0 | 0.02 | 0.29 | 0.29 | 91 | 1008.7 |
| 20260509174542 | 52 | 0 | 0.0 | 4.0 | 0.02 | 0.29 | 0.29 | 91 | 1008.7 |
| 20260509174032 | 52 | 0 | 0.0 | 4.0 | 0.03 | 0.29 | 0.29 | 92 | 1008.7 |
| 20260509173530 | 52 | 240 | 0.0 | 1.0 | 0.03 | 0.29 | 0.29 | 92 | 1008.8 |
| 20260509173036 | 52 | 0 | 0.0 | 1.0 | 0.03 | 0.29 | 0.29 | 93 | 1008.8 |
| 20260509172530 | 51 | 0 | 0.0 | 1.0 | 0.03 | 0.28 | 0.28 | 92 | 1008.9 |
| 20260509172030 | 51 | 0 | 0.0 | 1.0 | 0.03 | 0.28 | 0.28 | 92 | 1008.9 |
| 20260509171544 | 51 | 0 | 0.0 | 1.0 | 0.03 | 0.28 | 0.28 | 93 | 1009.1 |
| 20260509171029 | 51 | 0 | 0.0 | 1.0 | 0.03 | 0.28 | 0.28 | 92 | 1009.1 |
| 20260509170529 | 50 | 0 | 0.0 | 1.0 | 0.04 | 0.28 | 0.28 | 92 | 1009.2 |
| 20260509170039 | 51 | 0 | 0.0 | 0.0 | 0.03 | 0.27 | 0.27 | 93 | 1009.2 |
| 20260509165530 | 50 | 0 | 0.0 | 0.0 | 0.03 | 0.27 | 0.27 | 93 | 1009.2 |
| 20260509165030 | 50 | 0 | 0.0 | 1.0 | 0.03 | 0.27 | 0.27 | 93 | 1009.3 |
| 20260509164552 | 50 | 0 | 0.0 | 2.0 | 0.04 | 0.27 | 0.27 | 93 | 1009.3 |
| 20260509164030 | 50 | 0 | 0.0 | 2.0 | 0.03 | 0.26 | 0.26 | 94 | 1009.3 |
| 20260509163534 | 49 | 0 | 0.0 | 2.0 | 0.03 | 0.26 | 0.26 | 93 | 1009.3 |
| 20260509163047 | 50 | 0 | 0.0 | 2.0 | 0.04 | 0.26 | 0.26 | 93 | 1009.4 |
| 20260509162530 | 50 | 0 | 0.0 | 2.0 | 0.03 | 0.25 | 0.25 | 95 | 1009.4 |
| 20260509162029 | 49 | 0 | 0.0 | 0.0 | 0.03 | 0.25 | 0.25 | 95 | 1009.5 |
| 20260509161537 | 48 | 0 | 0.0 | 0.0 | 0.04 | 0.25 | 0.25 | 95 | 1009.6 |
| 20260509161030 | 48 | 0 | 0.0 | 2.0 | 0.04 | 0.25 | 0.25 | 94 | 1009.6 |
| 20260509160530 | 47 | 0 | 0.0 | 2.0 | 0.04 | 0.24 | 0.24 | 95 | 1009.7 |
| 20260509160039 | 47 | 323 | 0.0 | 2.0 | 0.05 | 0.24 | 0.24 | 95 | 1009.8 |
| 20260509155531 | 47 | 336 | 0.0 | 2.0 | 0.06 | 0.24 | 0.24 | 94 | 1009.9 |
| 20260509155031 | 47 | 0 | 0.0 | 2.0 | 0.06 | 0.24 | 0.24 | 94 | 1010.0 |
| 20260509154543 | 47 | 0 | 0.0 | 0.0 | 0.06 | 0.23 | 0.23 | 94 | 1010.1 |
| 20260509154031 | 46 | 0 | 0.0 | 0.0 | 0.07 | 0.23 | 0.23 | 94 | 1010.1 |
| 20260509153530 | 47 | 0 | 0.0 | 0.0 | 0.07 | 0.23 | 0.23 | 93 | 1010.2 |
| 20260509153044 | 47 | 0 | 0.0 | 0.0 | 0.07 | 0.22 | 0.22 | 94 | 1010.3 |
| 20260509152530 | 46 | 0 | 0.0 | 0.0 | 0.07 | 0.22 | 0.22 | 94 | 1010.4 |
| 20260509152031 | 46 | 0 | 0.0 | 0.0 | 0.08 | 0.22 | 0.22 | 94 | 1010.4 |
| 20260509151542 | 46 | 0 | 0.0 | 0.0 | 0.07 | 0.21 | 0.21 | 94 | 1010.5 |
| 20260509151032 | 45 | 0 | 0.0 | 0.0 | 0.07 | 0.20 | 0.20 | 94 | 1010.5 |
| 20260509150530 | 45 | 0 | 0.0 | 2.0 | 0.07 | 0.20 | 0.20 | 94 | 1010.6 |
| 20260509150040 | 45 | 0 | 0.0 | 2.0 | 0.07 | 0.19 | 0.19 | 94 | 1010.7 |
| 20260509145532 | 45 | 0 | 0.0 | 2.0 | 0.06 | 0.18 | 0.18 | 94 | 1010.7 |
| 20260509145030 | 45 | 0 | 0.0 | 2.0 | 0.05 | 0.17 | 0.17 | 94 | 1010.7 |
| 20260509144540 | 44 | 0 | 0.0 | 0.0 | 0.06 | 0.17 | 0.17 | 94 | 1010.7 |
| 20260509144030 | 45 | 0 | 0.0 | 0.0 | 0.05 | 0.16 | 0.16 | 94 | 1010.7 |
| 20260509143532 | 45 | 0 | 0.0 | 0.0 | 0.06 | 0.16 | 0.16 | 94 | 1010.7 |
| 20260509143035 | 45 | 0 | 0.0 | 0.0 | 0.05 | 0.15 | 0.15 | 94 | 1010.7 |
| 20260509142533 | 44 | 0 | 0.0 | 0.0 | 0.05 | 0.15 | 0.15 | 93 | 1010.7 |
| 20260509142034 | 44 | 0 | 0.0 | 0.0 | 0.05 | 0.14 | 0.14 | 94 | 1010.7 |
| 20260509141543 | 44 | 0 | 0.0 | 0.0 | 0.05 | 0.14 | 0.14 | 94 | 1010.7 |
| 20260509141030 | 44 | 0 | 0.0 | 0.0 | 0.04 | 0.13 | 0.13 | 94 | 1010.7 |
| 20260509140530 | 44 | 0 | 0.0 | 0.0 | 0.04 | 0.13 | 0.13 | 94 | 1010.7 |
| 20260509140045 | 44 | 0 | 0.0 | 1.0 | 0.04 | 0.12 | 0.12 | 94 | 1010.6 |
| 20260509135530 | 43 | 0 | 0.0 | 2.0 | 0.04 | 0.12 | 0.12 | 94 | 1010.6 |
| 20260509135030 | 43 | 0 | 0.0 | 2.0 | 0.04 | 0.12 | 0.12 | 94 | 1010.7 |
| 20260509134538 | 43 | 0 | 0.0 | 2.0 | 0.04 | 0.11 | 0.11 | 94 | 1010.8 |
| 20260509134031 | 43 | 136 | 0.0 | 2.0 | 0.04 | 0.11 | 0.11 | 93 | 1010.8 |
| 20260509133530 | 43 | 0 | 0.0 | 0.0 | 0.03 | 0.10 | 0.10 | 94 | 1010.8 |
| 20260509133040 | 43 | 0 | 0.0 | 1.0 | 0.04 | 0.10 | 0.10 | 93 | 1010.8 |
| 20260509132529 | 43 | 0 | 0.0 | 1.0 | 0.04 | 0.10 | 0.10 | 94 | 1010.8 |
| 20260509132029 | 43 | 0 | 0.0 | 1.0 | 0.03 | 0.09 | 0.09 | 94 | 1010.7 |
| 20260509131536 | 43 | 0 | 0.0 | 1.0 | 0.03 | 0.09 | 0.09 | 94 | 1010.8 |
| 20260509131029 | 42 | 0 | 0.0 | 1.0 | 0.03 | 0.09 | 0.09 | 94 | 1010.8 |
| 20260509130530 | 42 | 174 | 0.0 | 1.0 | 0.04 | 0.09 | 0.09 | 94 | 1010.8 |
| 20260509130056 | 42 | 0 | 0.0 | 1.0 | 0.03 | 0.08 | 0.08 | 93 | 1010.8 |
| 20260509125533 | 42 | 0 | 0.0 | 3.0 | 0.03 | 0.08 | 0.08 | 94 | 1010.8 |
| 20260509125030 | 42 | 0 | 0.0 | 3.0 | 0.03 | 0.08 | 0.08 | 94 | 1010.9 |
| 20260509124539 | 42 | 0 | 0.0 | 2.0 | 0.02 | 0.07 | 0.07 | 93 | 1010.8 |
| 20260509124030 | 42 | 0 | 0.0 | 2.0 | 0.03 | 0.07 | 0.07 | 93 | 1010.8 |
| 20260509123530 | 42 | 0 | 0.0 | 2.0 | 0.03 | 0.07 | 0.07 | 93 | 1010.8 |
| 20260509123038 | 42 | 206 | 0.0 | 1.0 | 0.02 | 0.06 | 0.06 | 93 | 1010.9 |
| 20260509122529 | 41 | 0 | 0.0 | 1.0 | 0.02 | 0.06 | 0.06 | 94 | 1010.9 |
| 20260509122030 | 41 | 0 | 0.0 | 1.0 | 0.02 | 0.06 | 0.06 | 93 | 1010.8 |
| 20260509121536 | 41 | 0 | 0.0 | 1.0 | 0.02 | 0.06 | 0.06 | 93 | 1010.9 |
| 20260509121030 | 41 | 0 | 0.0 | 2.0 | 0.01 | 0.05 | 0.05 | 93 | 1010.9 |
| 20260509120530 | 41 | 0 | 0.0 | 2.0 | 0.01 | 0.05 | 0.05 | 93 | 1011.0 |
| 20260509120036 | 41 | 205 | 0.0 | 2.0 | 0.01 | 0.05 | 0.05 | 93 | 1011.0 |
| 20260509115529 | 41 | 0 | 0.0 | 2.0 | 0.01 | 0.05 | 0.05 | 93 | 1011.0 |
| 20260509115031 | 41 | 0 | 0.0 | 2.0 | 0.01 | 0.05 | 0.05 | 93 | 1011.0 |
| 20260509114539 | 40 | 0 | 0.0 | 2.0 | 0.01 | 0.05 | 0.05 | 93 | 1011.0 |
| 20260509114029 | 40 | 0 | 0.0 | 2.0 | 0.00 | 0.04 | 0.04 | 93 | 1011.1 |
| 20260509113531 | 40 | 0 | 0.0 | 2.0 | 0.00 | 0.04 | 0.04 | 93 | 1011.0 |
| 20260509113043 | 40 | 163 | 0.0 | 2.0 | 0.00 | 0.04 | 0.04 | 93 | 1011.0 |
| 20260509112533 | 40 | 0 | 0.0 | 2.0 | 0.00 | 0.04 | 0.04 | 93 | 1011.1 |
| 20260509112030 | 40 | 0 | 0.0 | 2.0 | 0.00 | 0.04 | 0.04 | 93 | 1011.0 |
| 20260509111539 | 40 | 0 | 0.0 | 2.0 | 0.00 | 0.04 | 0.04 | 93 | 1011.0 |
| 20260509111030 | 40 | 176 | 0.0 | 2.0 | 0.00 | 0.04 | 0.04 | 93 | 1011.1 |
| 20260509110529 | 40 | 0 | 0.0 | 1.0 | 0.00 | 0.04 | 0.04 | 93 | 1010.9 |
| 20260509110040 | 40 | 0 | 0.0 | 2.0 | 0.00 | 0.04 | 0.04 | 93 | 1010.8 |
| 20260509105530 | 40 | 0 | 0.0 | 2.0 | 0.00 | 0.04 | 0.04 | 93 | 1010.9 |
| 20260509105030 | 40 | 0 | 0.0 | 2.0 | 0.00 | 0.04 | 0.04 | 93 | 1011.0 |
| 20260509104537 | 40 | 0 | 0.0 | 2.0 | 0.00 | 0.04 | 0.04 | 93 | 1010.9 |
| 20260509104029 | 39 | 198 | 0.0 | 2.0 | 0.00 | 0.04 | 0.04 | 93 | 1010.9 |
| 20260509103530 | 39 | 0 | 0.0 | 2.0 | 0.00 | 0.04 | 0.04 | 93 | 1010.8 |
| 20260509103039 | 39 | 143 | 0.0 | 2.0 | 0.00 | 0.04 | 0.04 | 93 | 1011.0 |
| 20260509102529 | 39 | 0 | 0.0 | 2.0 | 0.00 | 0.04 | 0.04 | 93 | 1010.9 |
| 20260509102045 | 39 | 163 | 0.0 | 2.0 | 0.01 | 0.04 | 0.04 | 92 | 1010.9 |
| 20260509101544 | 39 | 0 | 0.0 | 2.0 | 0.01 | 0.04 | 0.04 | 92 | 1010.9 |
| 20260509101030 | 39 | 0 | 0.0 | 2.0 | 0.01 | 0.04 | 0.04 | 92 | 1010.9 |
| 20260509100530 | 39 | 0 | 0.0 | 2.0 | 0.01 | 0.04 | 0.04 | 92 | 1011.1 |
| 20260509100039 | 39 | 0 | 0.0 | 2.0 | 0.01 | 0.04 | 0.04 | 92 | 1011.1 |
| 20260509095530 | 39 | 202 | 0.0 | 2.0 | 0.01 | 0.04 | 0.04 | 92 | 1011.2 |
| 20260509095029 | 39 | 0 | 0.0 | 2.0 | 0.01 | 0.04 | 0.04 | 91 | 1011.2 |
| 20260509094538 | 39 | 0 | 0.0 | 1.0 | 0.02 | 0.04 | 0.04 | 91 | 1011.3 |
| 20260509094030 | 39 | 227 | 0.0 | 0.0 | 0.02 | 0.04 | 0.04 | 91 | 1011.3 |
| 20260509093530 | 39 | 0 | 0.0 | 1.0 | 0.02 | 0.04 | 0.04 | 91 | 1011.3 |
| 20260509093041 | 39 | 0 | 0.0 | 2.0 | 0.03 | 0.04 | 0.04 | 91 | 1011.2 |
| 20260509092529 | 39 | 0 | 0.0 | 3.0 | 0.03 | 0.04 | 0.04 | 90 | 1011.2 |
| 20260509092030 | 39 | 0 | 0.0 | 3.0 | 0.03 | 0.03 | 0.03 | 90 | 1011.3 |
| 20260509091540 | 39 | 133 | 0.0 | 3.0 | 0.03 | 0.03 | 0.03 | 90 | 1011.4 |
| 20260509091031 | 39 | 146 | 1.0 | 3.0 | 0.03 | 0.03 | 0.03 | 90 | 1011.3 |
| 20260509090531 | 39 | 0 | 0.0 | 3.0 | 0.03 | 0.03 | 0.03 | 89 | 1011.3 |
| 20260509090045 | 39 | 204 | 0.0 | 3.0 | 0.03 | 0.03 | 0.03 | 89 | 1011.3 |
| 20260509085531 | 39 | 168 | 0.0 | 3.0 | 0.03 | 0.03 | 0.03 | 89 | 1011.4 |
| 20260509085030 | 39 | 171 | 0.0 | 4.0 | 0.02 | 0.02 | 0.02 | 88 | 1011.4 |
| 20260509084541 | 39 | 146 | 1.0 | 4.0 | 0.02 | 0.02 | 0.02 | 88 | 1011.5 |
| 20260509084030 | 39 | 0 | 0.0 | 2.0 | 0.02 | 0.02 | 0.02 | 88 | 1011.5 |
| 20260509083530 | 39 | 188 | 0.0 | 3.0 | 0.02 | 0.02 | 0.02 | 87 | 1011.6 |
| 20260509083041 | 39 | 168 | 0.0 | 3.0 | 0.01 | 0.01 | 0.01 | 86 | 1011.6 |
| 20260509082530 | 39 | 152 | 0.0 | 6.0 | 0.01 | 0.01 | 0.01 | 86 | 1011.6 |
| 20260509082030 | 39 | 0 | 1.0 | 6.0 | 0.00 | 0.00 | 0.00 | 85 | 1011.7 |
| 20260509081540 | 39 | 188 | 1.0 | 5.0 | 0.00 | 0.00 | 0.00 | 85 | 1011.7 |